CW8428 Weather Reports


Display with metric or nautical units.
time (UTC)temp
F
wind
direction
speed
MPH
gust
MPH
rain 1hr
in
rain 24hr
in
rain mn
in
humidity
%
barometer
mb
20260831193626 80 240 4.0 7.0 0.00 0.00 0.00 45 1017.6
20260831192621 78 278 2.0 6.0 0.00 0.00 0.00 47 1017.8
20260831191612 76 232 4.0 5.0 0.00 0.00 0.00 49 1018.0
20260831190623 75 238 4.0 9.0 0.00 0.00 0.00 49 1018.2
20260831185626 74 292 6.0 8.0 0.00 0.00 0.00 49 1018.3
20260831184641 73 260 3.0 6.0 0.00 0.00 0.00 52 1018.4
20260831183632 72 250 1.0 3.0 0.00 0.00 0.00 51 1018.8
20260831182623 71 249 1.0 4.0 0.00 0.00 0.00 52 1019.1
20260831181613 71 244 2.0 4.0 0.00 0.00 0.00 52 1019.3
20260831180652 70 249 2.0 6.0 0.00 0.00 0.00 52 1019.4
20260831175638 70 256 3.0 4.0 0.00 0.00 0.00 52 1019.5
20260831174628 69 261 1.0 4.0 0.00 0.00 0.00 53 1019.7
20260831173618 69 275 3.0 6.0 0.00 0.00 0.00 54 1019.9
20260831172650 68 271 2.0 6.0 0.00 0.00 0.00 54 1019.9
20260831171641 67 251 3.0 4.0 0.00 0.00 0.00 53 1019.9
20260831170615 66 243 1.0 3.0 0.00 0.00 0.00 56 1020.0
20260831165618 65 243 1.0 5.0 0.00 0.00 0.00 57 1020.1
20260831164629 64 259 1.0 6.0 0.00 0.00 0.00 61 1020.2
20260831163620 63 270 2.0 6.0 0.00 0.00 0.00 62 1020.2
20260831162615 62 270 4.0 7.0 0.00 0.00 0.00 63 1020.1
20260831161626 62 282 2.0 5.0 0.00 0.00 0.00 66 1020.1
20260831160617 61 340 2.0 6.0 0.00 0.00 0.00 66 1020.2
20260831155620 60 263 1.0 3.0 0.00 0.00 0.00 70 1020.4
20260831154636 59 257 0.0 0.0 0.00 0.00 0.00 72 1020.5
20260831153646 58 256 0.0 0.0 0.00 0.00 0.00 74 1020.6
20260831152635 57 256 0.0 0.0 0.00 0.00 0.00 77 1020.7
20260831151645 56 255 0.0 0.0 0.00 0.00 0.00 79 1020.9
20260831150618 55 252 0.0 0.0 0.00 0.00 0.00 81 1020.8
20260831145619 54 240 0.0 0.0 0.00 0.00 0.00 82 1020.9
20260831144630 53 238 0.0 0.0 0.00 0.00 0.00 86 1021.0
20260831143620 52 237 0.0 4.0 0.00 0.00 0.00 87 1020.9
20260831142613 51 214 1.0 2.0 0.00 0.00 0.00 89 1021.1
20260831141644 50 211 0.0 0.0 0.00 0.00 0.00 91 1021.3
20260831140614 49 211 0.0 1.0 0.00 0.00 0.00 90 1021.0
20260831135617 48 211 0.0 1.0 0.00 0.00 0.00 91 1021.0
20260831134612 47 211 0.0 0.0 0.00 0.00 0.00 90 1021.1
20260831133623 47 211 0.0 2.0 0.00 0.00 0.00 90 1021.0
20260831132614 47 211 0.0 2.0 0.00 0.00 0.00 90 1020.9
20260831131625 47 211 0.0 2.0 0.00 0.00 0.00 90 1020.9
20260831130620 47 211 0.0 2.0 0.00 0.00 0.00 90 1020.8
20260831125623 47 211 1.0 3.0 0.00 0.01 0.00 90 1020.7
20260831124614 48 211 1.0 2.0 0.00 0.01 0.00 89 1020.7
20260831123625 48 211 1.0 2.0 0.00 0.01 0.00 89 1020.6
20260831122621 48 211 1.0 1.0 0.00 0.01 0.00 89 1020.6
20260831121631 48 211 2.0 3.0 0.00 0.01 0.00 89 1020.6
20260831120623 48 211 1.0 2.0 0.00 0.01 0.00 89 1020.6
20260831115626 49 210 3.0 4.0 0.00 0.01 0.00 88 1020.6
20260831114637 49 210 1.0 2.0 0.00 0.01 0.00 88 1020.5
20260831113631 49 210 0.0 1.0 0.00 0.01 0.00 88 1020.7
20260831112622 49 210 0.0 1.0 0.00 0.01 0.00 88 1020.6
20260831111613 49 210 1.0 2.0 0.00 0.01 0.00 88 1020.5
20260831110624 49 210 0.0 2.0 0.00 0.01 0.00 87 1020.4
20260831105631 50 210 0.0 1.0 0.00 0.01 0.00 87 1020.4
20260831104622 50 210 1.0 3.0 0.00 0.01 0.00 87 1020.4
20260831103634 51 210 0.0 2.0 0.00 0.01 0.00 87 1020.4
20260831102644 51 210 0.0 0.0 0.00 0.01 0.00 86 1020.4
20260831101617 51 210 0.0 0.0 0.00 0.01 0.00 86 1020.4
20260831100625 50 210 1.0 2.0 0.00 0.01 0.00 87 1020.2
20260831095648 50 209 0.0 0.0 0.00 0.08 0.00 86 1020.2
20260831094616 50 209 0.0 0.0 0.00 0.08 0.00 86 1020.2
20260831093626 50 209 0.0 1.0 0.00 0.08 0.00 86 1020.2
20260831092620 50 209 0.0 2.0 0.00 0.08 0.00 85 1020.2
20260831091629 50 209 0.0 0.0 0.00 0.08 0.00 85 1020.1
20260831090619 50 209 0.0 2.0 0.00 0.08 0.00 85 1020.0
20260831085620 50 209 0.0 3.0 0.00 0.08 0.00 83 1020.0
20260831084614 51 208 2.0 4.0 0.00 0.08 0.00 82 1020.0
20260831083644 52 206 1.0 3.0 0.00 0.08 0.00 82 1020.1
20260831082614 52 206 2.0 3.0 0.00 0.08 0.00 82 1019.9
20260831081624 53 206 0.0 2.0 0.00 0.08 0.00 81 1019.8
20260831080647 53 206 1.0 2.0 0.00 0.08 0.00 80 1019.8
20260831075629 53 206 0.0 2.0 0.00 0.08 0.00 80 1019.9
20260831074618 53 205 0.0 1.0 0.00 0.08 0.00 80 1019.9
20260831073628 53 205 2.0 3.0 0.00 0.08 0.00 80 1019.9
20260831072621 53 206 0.0 2.0 0.00 0.08 0.00 78 1019.9
20260831071631 54 206 1.0 2.0 0.00 0.08 0.00 78 1020.0
20260831070621 54 205 0.0 1.0 0.00 0.08 0.00 79 1019.9
20260831065643 54 205 1.0 2.0 0.00 0.08 0.00 78 1019.8
20260831064616 54 205 1.0 2.0 0.00 0.08 0.00 78 1019.7
20260831063627 54 205 2.0 2.0 0.00 0.08 0.00 78 1019.7
20260831062637 54 205 1.0 3.0 0.00 0.08 0.00 78 1019.7
20260831061626 55 205 0.0 3.0 0.00 0.08 0.00 77 1019.6
20260831060622 56 205 2.0 4.0 0.00 0.08 0.00 77 1019.6
20260831055629 56 202 2.0 3.0 0.00 0.08 0.08 78 1019.6
20260831054619 56 201 0.0 2.0 0.00 0.08 0.08 76 1019.5
20260831053630 57 201 0.0 3.0 0.00 0.08 0.08 76 1019.5
20260831052620 57 201 1.0 3.0 0.00 0.08 0.08 74 1019.5
20260831051615 58 186 0.0 3.0 0.00 0.08 0.08 72 1019.4
20260831050626 59 186 0.0 1.0 0.00 0.08 0.08 70 1019.3
20260831045628 60 186 1.0 3.0 0.00 0.08 0.08 68 1019.1
20260831044618 60 186 1.0 2.0 0.00 0.08 0.08 66 1019.1
20260831043612 60 186 2.0 3.0 0.00 0.08 0.08 66 1019.1
20260831042622 61 186 1.0 3.0 0.00 0.08 0.08 66 1019.1
20260831041631 61 186 1.0 4.0 0.00 0.08 0.08 66 1019.1
20260831040627 61 252 1.0 4.0 0.00 0.08 0.08 66 1019.1
20260831035612 61 254 1.0 3.0 0.00 0.08 0.08 67 1018.9
20260831034622 62 254 0.0 2.0 0.00 0.08 0.08 66 1018.9
20260831033612 62 254 0.0 2.0 0.00 0.08 0.08 64 1018.7
20260831032626 63 254 0.0 2.0 0.00 0.08 0.08 64 1018.6
20260831031615 63 254 0.0 1.0 0.00 0.08 0.08 61 1018.5
20260831030647 64 254 1.0 2.0 0.00 0.08 0.08 59 1018.3
20260831025651 64 254 0.0 5.0 0.00 0.08 0.08 57 1018.1
20260831024622 65 293 1.0 2.0 0.00 0.08 0.08 56 1017.9
20260831023638 65 293 2.0 5.0 0.00 0.08 0.08 56 1017.7
20260831022628 66 242 3.0 4.0 0.00 0.08 0.08 55 1017.6
20260831021618 68 240 2.0 4.0 0.00 0.08 0.08 50 1017.5
20260831020629 70 235 2.0 4.0 0.00 0.08 0.08 50 1017.4
20260831015617 71 234 2.0 5.0 0.00 0.08 0.08 44 1017.2
20260831014629 72 307 3.0 4.0 0.00 0.08 0.08 42 1017.2
20260831013620 75 307 3.0 8.0 0.00 0.08 0.08 35 1017.2
20260831012650 75 300 5.0 9.0 0.00 0.08 0.08 35 1017.2
20260831011625 74 296 6.0 8.0 0.00 0.08 0.08 37 1017.3
20260831010615 76 260 4.0 9.0 0.00 0.08 0.08 38 1017.4
20260831005619 76 292 6.0 9.0 0.00 0.08 0.08 33 1017.2
20260831004613 76 296 4.0 11.0 0.00 0.08 0.08 36 1017.1
20260831003626 76 279 5.0 11.0 0.00 0.08 0.08 36 1017.1
20260831002617 77 297 4.0 9.0 0.00 0.08 0.08 33 1017.2
20260831001628 77 302 8.0 11.0 0.00 0.08 0.08 32 1017.3
20260831000613 77 269 7.0 10.0 0.00 0.08 0.08 33 1017.4
20260830235636 77 268 7.0 13.0 0.00 0.08 0.08 35 1017.3
20260830234626 78 279 8.0 12.0 0.00 0.08 0.08 34 1017.4
20260830233615 78 271 4.0 15.0 0.00 0.08 0.08 31 1017.3
20260830232626 78 260 8.0 11.0 0.00 0.08 0.08 36 1017.3
20260830231620 78 355 3.0 11.0 0.00 0.08 0.08 32 1017.3
20260830230627 78 302 7.0 13.0 0.00 0.08 0.08 35 1017.2
20260830225630 78 276 11.0 13.0 0.00 0.08 0.08 36 1017.2
20260830224640 78 344 7.0 12.0 0.00 0.08 0.08 35 1017.4
20260830223613 77 290 5.0 11.0 0.00 0.08 0.08 35 1017.4
20260830222622 78 261 7.0 15.0 0.00 0.08 0.08 36 1017.5
20260830221612 78 279 11.0 15.0 0.00 0.08 0.08 37 1017.6
20260830220622 78 257 9.0 15.0 0.00 0.08 0.08 37 1017.6
20260830215627 77 241 7.0 13.0 0.00 0.09 0.08 37 1017.5
20260830214618 77 261 8.0 12.0 0.00 0.09 0.08 40 1017.6
20260830213627 76 282 5.0 11.0 0.00 0.09 0.08 42 1017.7
20260830212621 77 274 8.0 11.0 0.00 0.09 0.08 38 1017.9
20260830211631 78 265 6.0 10.0 0.00 0.09 0.08 35 1018.0
20260830210643 77 231 6.0 10.0 0.00 0.09 0.08 41 1018.0
20260830205623 77 271 4.0 10.0 0.00 0.12 0.08 39 1018.0
20260830204616 77 226 9.0 13.0 0.00 0.12 0.08 38 1018.2
20260830203626 77 210 9.0 13.0 0.00 0.12 0.08 36 1018.2
20260830202616 77 273 7.0 12.0 0.00 0.12 0.08 38 1018.3
20260830201626 77 193 6.0 14.0 0.00 0.12 0.08 39 1018.2
20260830200620 77 246 6.0 12.0 0.00 0.12 0.08 40 1018.3
20260830195644 76 202 5.0 15.0 0.00 0.12 0.08 37 1018.4
20260830194614 76 190 7.0 10.0 0.00 0.12 0.08 37 1018.4